Regional Weather Roundup
Issued by NWS

Home | Current Version | Previous Version | Text Only | Print | Product List | Glossary On
Versions: 1 2 3 4 5 6 7 8 9 10 11 12 13 14 15 16 17 18 19 20 21 22 23 24 25 26 27 28 29 30 31 32 33 34 35 36 37 38 39 40 41 42 43 44 45 46 47 48 49 50
000
ASUS45 KABQ 110010
RWRNM
NEW MEXICO REGIONAL WEATHER ROUNDUP
NATIONAL WEATHER SERVICE ALBUQUERQUE NM
500 PM MST WED FEB 10 2016

NOTE: "FAIR" MEANS FEW OR NO CLOUDS BELOW 12,000 FEET AGL WITH NO
       SIGNIFICANT WEATHER OR OBSTRUCTIONS TO VISION.

      THIS PRODUCT IS RELEASED AS TWO VERSIONS.  ONE VERSION NEAR
      THE TOP OF THE HOUR CONTAINING PRELIMINARY DATA FROM ALBUQUERQUE
      AND OTHER STATIONS.  A FINAL VERSION WITH ADDITIONAL DATA IS
      ISSUED ABOUT 10 MINUTES AFTER THE HOUR.

NMZ501-503-504-510>518-110100-
NORTHWEST PLATEAU/NORTHCENTRAL MOUNTAINS

CITY           SKY/WX    TMP DP  RH WIND       PRES   REMARKS
FARMINGTON     CLEAR     51  23  33 W8        30.33S
6HR MIN TEMP:  41; 6HR MAX TEMP:  54;

LOS ALAMOS     CLEAR     54  18  24 CALM      30.35S
SANTA FE       CLEAR     57  15  19 SW5       30.29F
6HR MIN TEMP:  49; 6HR MAX TEMP:  60;

TAOS           CLEAR     52  21  30 E3        30.33S
ANGEL FIRE     FAIR      42  17  35 W13       30.35R

$$
NMZ402-403-502-505>509-110100-
WESTCENTRAL MOUNTAINS/SOUTHWEST MOUNTAINS

CITY           SKY/WX    TMP DP  RH WIND       PRES   REMARKS
GALLUP         CLEAR     59  22  24 SW9       30.35S
6HR MIN TEMP:  45; 6HR MAX TEMP:  62;

GRANTS         CLEAR     61   6  11 N10G17    30.35S
SILVER CITY      N/A     64  14  14 S10       30.31S

$$
NMZ407-409-411-412-110100-
SOUTHERN DESERTS

CITY           SKY/WX    TMP DP  RH WIND       PRES   REMARKS
LORDSBURG      FAIR      68  18  14 NW6       30.25S
DEMING         CLEAR     68  13  12 SW3       30.26F
6HR MIN TEMP:  61; 6HR MAX TEMP:  70;

LAS CRUCES     CLEAR     67  13  12 SW6       30.27S
HOLLOMAN AFB   CLEAR     68  15  13 W3        30.24S
ALAMOGORDO     CLEAR     68  14  12 NW5       30.26S
T OR C         CLEAR     67  15  13 S6        30.25F
6HR MIN TEMP:  54; 6HR MAX TEMP:  68;


$$
NMZ519>523-110100-
CENTRAL VALLEYS/CENTRAL HIGHLANDS

CITY           SKY/WX    TMP DP  RH WIND       PRES   REMARKS
ALBUQUERQUE    CLEAR     61  16  17 S3        30.29F
6HR MIN TEMP:  48; 6HR MAX TEMP:  63;

DOUBLE EAGLE   PTCLDY    63  19  19 VRB6      30.31S
MORIARTY ARPT  FAIR      59  12  15 W9        30.31S
6HR MIN TEMP:  55; 6HR MAX TEMP:  64;

CLINES CORNERS CLEAR     52  20  28 NW13      30.30R
6HR MIN TEMP:  48; 6HR MAX TEMP:  57;

BELEN          FAIR      62  15  15 CALM      30.29S
6HR MIN TEMP:  48; 6HR MAX TEMP:  64;

SOCORRO        FAIR      63  17  17 CALM      30.28S
6HR MIN TEMP:  50; 6HR MAX TEMP:  64;


$$
NMZ524>526-539-540-110100-
SOUTHCENTRAL MOUNTAINS

CITY           SKY/WX    TMP DP  RH WIND       PRES   REMARKS
RUIDOSO          N/A     55   9  15 NW9       30.35R

$$
NMZ527>531-110100-
NORTHEAST HIGHLANDS/NORTHEAST PLAINS

CITY           SKY/WX    TMP DP  RH WIND       PRES   REMARKS
LAS VEGAS      CLEAR     60   7  12 N15       30.24S
6HR MIN TEMP:  59; 6HR MAX TEMP:  67;

RATON          CLEAR     63   3   9 NW9       30.18S
6HR MIN TEMP:  54; 6HR MAX TEMP:  70;

CLAYTON        CLEAR     69   3   7 NW8       30.11S
6HR MIN TEMP:  69; 6HR MAX TEMP:  77;


$$
NMZ532>537-110100-
EASTCENTRAL PLAINS

CITY           SKY/WX    TMP DP  RH WIND       PRES   REMARKS
TUCUMCARI      CLEAR     73   5   7 SW6       30.08S
CANNON AFB     CLEAR     71   7   8 W13       30.13S
6HR MIN TEMP:  64; 6HR MAX TEMP:  75;

CLOVIS AIRPORT CLEAR     70  12  11 W12       30.14S

$$
NMZ028-029-538-110100-
SOUTHEAST PLAINS

CITY           SKY/WX    TMP DP  RH WIND       PRES   REMARKS
ROSWELL        CLEAR     72  20  14 SE8       30.16S
6HR MIN TEMP:  56; 6HR MAX TEMP:  75;

ARTESIA        CLEAR     73  21  14 SW10      30.16S
CARLSBAD       CLEAR     73  19  13 SW3       30.16S
6HR MIN TEMP:  56; 6HR MAX TEMP:  75;

HOBBS          CLEAR     70   9   9 SW13      30.19F


$$



USA.gov is the U.S. government's official web portal to all federal, state and local government web resources and services.